Home > Weather > Drøbak > Past weeks

Flag for Norway Weather for the Past 2 Weeks in Drøbak, Norway

Now
46 °F

Light rain. Low clouds.


Feels Like: 35 °F
Forecast: 42 / 52 °F
Wind: 52 mph from South

Location: Statfjord B

Current Time: May 2, 2016 at 8:15:43 AM

Latest Report: May 2, 2016 at 6:50 AM


Visibility: N/A

Pressure: 29.62 "Hg

Humidity: 100%

Dew Point: 46 °F

Location of DrøbakLocation

Historic Weather in Drøbak — Graph

°F

Drøbak Temperature Yesterday

Maximum temperature yesterday: 46 °F (at 7:20 AM)
Minimum temperature yesterday: 43 °F (at 6:20 PM)
Average temperature yesterday: 45 °F

High & Low Weather Summary for the Past Weeks

 TemperatureHumidityPressure
High48 °F (Apr 28, 10:50 AM)100% (Apr 20, 2:20 PM)30.33 "Hg (Apr 20, 2:20 PM)
Low30 °F (Apr 23, 6:20 AM)50% (Apr 28, 10:50 AM)29.27 "Hg (Apr 18, 10:20 AM)
Average42 °F75%29.88 "Hg
* Reported Apr 17 6:20 AM — May 2 6:20 AM, Drøbak, Weather by CustomWeather, © 2016

Note: Actual official high and low records may vary slightly from our data, if they occured in-between our weather recording intervals... More about our weather records

Advertising

Drøbak Weather History for the Previous 24 Hours

Scroll right to see more
 ConditionsComfort  
Time TempWeatherWind HumidityBarometerVisibility
6:20 AM
Mon, May 2
46 °FLight rain. Low clouds.48 mph100%29.65 "Hg4 mi
5:50 AM46 °FLight rain. Low clouds.47 mph100%29.68 "Hg4 mi
5:20 AM46 °FLight rain. Low clouds.47 mph93%29.68 "Hg6 mi
4:50 AM46 °FLight rain. Passing clouds.45 mph93%29.71 "Hg5 mi
3:50 AM46 °FLow clouds.47 mph93%29.74 "HgN/A
3:20 AM46 °FLow clouds.48 mph93%29.74 "Hg6 mi
2:50 AM46 °FLow clouds.44 mph93%29.77 "Hg6 mi
2:20 AM46 °FLow clouds.43 mph93%29.80 "Hg6 mi
1:50 AM46 °FLow clouds.43 mph93%29.80 "HgN/A
12:50 AM46 °FLow clouds.39 mph93%29.83 "HgN/A
12:20 AM46 °FLow clouds.36 mph93%29.86 "HgN/A
11:50 PM
Sun, May 1
46 °FPassing clouds.33 mph93%29.86 "HgN/A
11:20 PM46 °FPassing clouds.26 mph93%29.89 "HgN/A
10:50 PM46 °FPassing clouds.25 mph93%29.89 "HgN/A
10:20 PM46 °FPassing clouds.24 mph93%29.92 "HgN/A
9:50 PM46 °FPartly sunny.23 mph93%29.92 "HgN/A
9:20 PM46 °FPartly sunny.23 mph93%29.92 "HgN/A
8:50 PM46 °FSprinkles. Partly sunny.23 mph93%29.92 "HgN/A
8:20 PM46 °FBroken clouds.24 mph93%29.92 "HgN/A
7:50 PM46 °FPartly sunny.18 mph87%29.92 "HgN/A
7:20 PM45 °FPartly sunny.18 mph76%29.92 "HgN/A
6:50 PM45 °FSprinkles. Partly sunny.20 mph76%29.92 "HgN/A
6:20 PM43 °FDrizzle. Partly sunny.22 mph87%29.92 "HgN/A
5:50 PM45 °FPartly sunny.31 mph100%29.92 "HgN/A
5:20 PM45 °FPartly sunny.35 mph100%29.89 "HgN/A
4:50 PM45 °FLight rain. Low clouds.41 mph100%29.89 "HgN/A
4:20 PM45 °FLight rain. Partly sunny.45 mph93%29.89 "Hg3 mi
3:50 PM45 °FSprinkles. Partly sunny.53 mph93%29.89 "Hg4 mi
3:20 PM45 °FSprinkles. Overcast.54 mph87%29.89 "HgN/A
2:50 PM45 °FDrizzle. Partly sunny.50 mph87%29.89 "HgN/A
2:20 PM45 °FLight rain. Partly sunny.51 mph87%29.89 "HgN/A
1:50 PM45 °FLight rain. Partly sunny.46 mph87%29.92 "HgN/A
1:20 PM45 °FSprinkles. Partly sunny.51 mph87%29.92 "HgN/A
12:50 PM46 °FSprinkles. Partly sunny.50 mph82%29.92 "HgN/A
12:20 PM46 °FPartly sunny.51 mph82%29.92 "HgN/A
11:50 AM46 °FPartly sunny.51 mph82%29.92 "HgN/A
11:20 AM46 °FPartly sunny.48 mph82%29.95 "HgN/A
10:50 AM46 °FPartly sunny.48 mph82%29.95 "HgN/A
10:20 AM46 °FPartly sunny.48 mph82%29.95 "HgN/A
9:50 AM46 °FPartly sunny.46 mph82%29.95 "HgN/A
8:50 AM46 °FPartly sunny.43 mph82%29.98 "HgN/A
8:20 AM46 °FPartly sunny.43 mph76%29.98 "HgN/A
Weather by CustomWeather, © 2016

See weather overviewHow to use our weather pages